Year,Month,Day,Hour,Minute,Value (Times are PST for temperature in C)
2009,07,26,00,00,17.70
2009,07,26,00,01,17.70
2009,07,26,00,02,17.70
2009,07,26,00,03,17.60
2009,07,26,00,04,17.60
2009,07,26,00,05,17.60
2009,07,26,00,06,17.60
2009,07,26,00,07,17.60
2009,07,26,00,08,17.50
2009,07,26,00,09,17.50
2009,07,26,00,10,17.60
2009,07,26,00,11,17.60
2009,07,26,00,12,17.60
2009,07,26,00,13,17.60
2009,07,26,00,14,17.60
2009,07,26,00,15,17.60
2009,07,26,00,16,17.60
2009,07,26,00,17,17.60
2009,07,26,00,18,17.60
2009,07,26,00,19,17.60
2009,07,26,00,20,17.60
2009,07,26,00,21,17.60
2009,07,26,00,22,17.60
2009,07,26,00,23,17.60
2009,07,26,00,24,17.60
2009,07,26,00,25,17.60
2009,07,26,00,26,17.60
2009,07,26,00,27,17.60
2009,07,26,00,28,17.60
2009,07,26,00,29,17.60
2009,07,26,00,30,17.60
2009,07,26,00,31,17.60
2009,07,26,00,32,17.60
2009,07,26,00,33,17.50
2009,07,26,00,34,17.50
2009,07,26,00,35,17.50
2009,07,26,00,36,17.50
2009,07,26,00,37,17.50
2009,07,26,00,38,17.50
2009,07,26,00,39,17.50
2009,07,26,00,40,17.50
2009,07,26,00,41,17.50
2009,07,26,00,42,17.50
2009,07,26,00,43,17.50
2009,07,26,00,44,17.50
2009,07,26,00,45,17.50
2009,07,26,00,46,17.50
2009,07,26,00,47,17.50
2009,07,26,00,48,17.50
2009,07,26,00,49,17.50
2009,07,26,00,50,17.50
2009,07,26,00,51,17.50
2009,07,26,00,52,17.50
2009,07,26,00,53,17.50
2009,07,26,00,54,17.50
2009,07,26,00,55,17.50
2009,07,26,00,56,17.50
2009,07,26,00,57,17.50
2009,07,26,00,58,17.50
2009,07,26,00,59,17.50
2009,07,26,01,00,17.60
2009,07,26,01,01,17.60
2009,07,26,01,02,17.60
2009,07,26,01,03,17.60
2009,07,26,01,04,17.60
2009,07,26,01,05,17.60
2009,07,26,01,06,17.60
2009,07,26,01,07,17.60
2009,07,26,01,08,17.60
2009,07,26,01,09,17.60
2009,07,26,01,10,17.60
2009,07,26,01,11,17.60
2009,07,26,01,12,17.60
2009,07,26,01,13,17.60
2009,07,26,01,14,17.60
2009,07,26,01,15,17.60
2009,07,26,01,16,17.60
2009,07,26,01,17,17.60
2009,07,26,01,18,17.60
2009,07,26,01,19,17.60
2009,07,26,01,20,17.60
2009,07,26,01,21,17.60
2009,07,26,01,22,17.60
2009,07,26,01,23,17.60
2009,07,26,01,24,17.60
2009,07,26,01,25,17.60
2009,07,26,01,26,17.60
2009,07,26,01,27,17.60
2009,07,26,01,28,17.60
2009,07,26,01,29,17.60
2009,07,26,01,30,17.70
2009,07,26,01,31,17.70
2009,07,26,01,32,17.70
2009,07,26,01,33,17.70
2009,07,26,01,34,17.70
2009,07,26,01,35,17.70
2009,07,26,01,36,17.70
2009,07,26,01,37,17.70
2009,07,26,01,38,17.70
2009,07,26,01,39,17.70
2009,07,26,01,40,17.70
2009,07,26,01,41,17.70
2009,07,26,01,42,17.70
2009,07,26,01,43,17.70
2009,07,26,01,44,17.70
2009,07,26,01,45,17.70
2009,07,26,01,46,17.70
2009,07,26,01,47,17.70
2009,07,26,01,48,17.80
2009,07,26,01,49,17.80
2009,07,26,01,50,17.70
2009,07,26,01,51,17.70
2009,07,26,01,52,17.70
2009,07,26,01,53,17.70
2009,07,26,01,54,17.80
2009,07,26,01,55,17.80
2009,07,26,01,56,17.80
2009,07,26,01,57,17.80
2009,07,26,01,58,17.80
2009,07,26,01,59,17.80
2009,07,26,02,00,17.80
2009,07,26,02,01,17.80
2009,07,26,02,02,17.80
2009,07,26,02,03,17.80
2009,07,26,02,04,17.80
2009,07,26,02,05,17.80
2009,07,26,02,06,17.80
2009,07,26,02,07,17.80
2009,07,26,02,08,17.80
2009,07,26,02,09,17.80
2009,07,26,02,10,17.80
2009,07,26,02,11,17.80
2009,07,26,02,12,17.80
2009,07,26,02,13,17.80
2009,07,26,02,14,17.80
2009,07,26,02,15,17.80
2009,07,26,02,16,17.80
2009,07,26,02,17,17.80
2009,07,26,02,18,17.80
2009,07,26,02,19,17.90
2009,07,26,02,20,17.90
2009,07,26,02,21,17.90
2009,07,26,02,22,17.90
2009,07,26,02,23,17.90
2009,07,26,02,24,17.90
2009,07,26,02,25,17.90
2009,07,26,02,26,17.90
2009,07,26,02,27,17.90
2009,07,26,02,28,17.90
2009,07,26,02,29,17.90
2009,07,26,02,30,17.90
2009,07,26,02,31,17.90
2009,07,26,02,32,17.90
2009,07,26,02,33,17.90
2009,07,26,02,34,17.90
2009,07,26,02,35,17.90
2009,07,26,02,36,17.90
2009,07,26,02,37,17.90
2009,07,26,02,38,17.90
2009,07,26,02,39,17.90
2009,07,26,02,40,17.90
2009,07,26,02,41,18.00
2009,07,26,02,42,17.90
2009,07,26,02,43,17.90
2009,07,26,02,44,17.90
2009,07,26,02,45,17.90
2009,07,26,02,46,17.90
2009,07,26,02,47,17.90
2009,07,26,02,48,17.90
2009,07,26,02,49,18.00
2009,07,26,02,50,18.00
2009,07,26,02,51,18.00
2009,07,26,02,52,18.00
2009,07,26,02,53,18.10
2009,07,26,02,54,18.10
2009,07,26,02,55,18.10
2009,07,26,02,56,18.20
2009,07,26,02,57,18.20
2009,07,26,02,58,18.20
2009,07,26,02,59,18.20
2009,07,26,03,00,18.20
2009,07,26,03,01,18.20
2009,07,26,03,02,18.20
2009,07,26,03,03,18.20
2009,07,26,03,04,18.20
2009,07,26,03,05,18.20
2009,07,26,03,06,18.20
2009,07,26,03,07,18.20
2009,07,26,03,08,18.20
2009,07,26,03,09,18.30
2009,07,26,03,10,18.30
2009,07,26,03,11,18.30
2009,07,26,03,12,18.40
2009,07,26,03,13,18.40
2009,07,26,03,14,18.40
2009,07,26,03,15,18.50
2009,07,26,03,16,18.50
2009,07,26,03,17,18.60
2009,07,26,03,18,18.60
2009,07,26,03,19,18.70
2009,07,26,03,20,18.70
2009,07,26,03,21,18.70
2009,07,26,03,22,18.80
2009,07,26,03,23,18.80
2009,07,26,03,24,18.90
2009,07,26,03,25,18.90
2009,07,26,03,26,18.90
2009,07,26,03,27,18.90
2009,07,26,03,28,19.00
2009,07,26,03,29,19.10
2009,07,26,03,30,19.10
2009,07,26,03,31,19.10
2009,07,26,03,32,19.10
2009,07,26,03,33,19.10
2009,07,26,03,34,19.00
2009,07,26,03,35,19.00
2009,07,26,03,36,18.90
2009,07,26,03,37,18.90
2009,07,26,03,38,18.90
2009,07,26,03,39,18.80
2009,07,26,03,40,18.80
2009,07,26,03,41,18.80
2009,07,26,03,42,18.80
2009,07,26,03,43,18.70
2009,07,26,03,44,18.70
2009,07,26,03,45,18.70
2009,07,26,03,46,18.70
2009,07,26,03,47,18.60
2009,07,26,03,48,18.60
2009,07,26,03,49,18.60
2009,07,26,03,50,18.60
2009,07,26,03,51,18.60
2009,07,26,03,52,18.60
2009,07,26,03,53,18.50
2009,07,26,03,54,18.50
2009,07,26,03,55,18.50
2009,07,26,03,56,18.40
2009,07,26,03,57,18.40
2009,07,26,03,58,18.40
2009,07,26,03,59,18.40
2009,07,26,04,00,18.40
2009,07,26,04,01,18.30
2009,07,26,04,02,18.30
2009,07,26,04,03,18.30
2009,07,26,04,04,18.30
2009,07,26,04,05,18.30
2009,07,26,04,06,18.20
2009,07,26,04,07,18.20
2009,07,26,04,08,18.20
2009,07,26,04,09,18.20
2009,07,26,04,10,18.20
2009,07,26,04,11,18.20
2009,07,26,04,12,18.20
2009,07,26,04,13,18.20
2009,07,26,04,14,18.20
2009,07,26,04,15,18.20
2009,07,26,04,16,18.20
2009,07,26,04,17,18.20
2009,07,26,04,18,18.10
2009,07,26,04,19,18.10
2009,07,26,04,20,18.10
2009,07,26,04,21,18.10
2009,07,26,04,22,18.10
2009,07,26,04,23,18.10
2009,07,26,04,24,18.10
2009,07,26,04,25,18.10
2009,07,26,04,26,18.00
2009,07,26,04,27,18.00
2009,07,26,04,28,17.90
2009,07,26,04,29,17.70
2009,07,26,04,30,17.70
2009,07,26,04,31,17.50
2009,07,26,04,32,17.40
2009,07,26,04,33,17.40
2009,07,26,04,34,17.30
2009,07,26,04,35,17.30
2009,07,26,04,36,17.30
2009,07,26,04,37,17.30
2009,07,26,04,38,17.20
2009,07,26,04,39,17.20
2009,07,26,04,40,17.20
2009,07,26,04,41,17.10
2009,07,26,04,42,17.10
2009,07,26,04,43,17.00
2009,07,26,04,44,17.00
2009,07,26,04,45,17.00
2009,07,26,04,46,17.00
2009,07,26,04,47,17.00
2009,07,26,04,48,17.00
2009,07,26,04,49,17.00
2009,07,26,04,50,17.00
2009,07,26,04,51,17.00
2009,07,26,04,52,17.00
2009,07,26,04,53,17.00
2009,07,26,04,54,17.00
2009,07,26,04,55,17.00
2009,07,26,04,56,17.00
2009,07,26,04,57,17.00
2009,07,26,04,58,17.10
2009,07,26,04,59,17.10
2009,07,26,05,00,17.10
2009,07,26,05,01,17.10
2009,07,26,05,02,17.10
2009,07,26,05,03,17.10
2009,07,26,05,04,17.10
2009,07,26,05,05,17.10
2009,07,26,05,06,17.10
2009,07,26,05,07,17.10
2009,07,26,05,08,17.10
2009,07,26,05,09,17.10
2009,07,26,05,10,17.10
2009,07,26,05,11,17.10
2009,07,26,05,12,17.10
2009,07,26,05,13,17.10
2009,07,26,05,14,17.10
2009,07,26,05,15,17.20
2009,07,26,05,16,17.20
2009,07,26,05,17,17.20
2009,07,26,05,18,17.20
2009,07,26,05,19,17.20
2009,07,26,05,20,17.20
2009,07,26,05,21,17.20
2009,07,26,05,22,17.20
2009,07,26,05,23,17.20
2009,07,26,05,24,17.20
2009,07,26,05,25,17.20
2009,07,26,05,26,17.20
2009,07,26,05,27,17.20
2009,07,26,05,28,17.20
2009,07,26,05,29,17.20
2009,07,26,05,30,17.20
2009,07,26,06,03,16.70
2009,07,26,06,04,16.70
2009,07,26,06,05,16.70
2009,07,26,06,06,16.70
2009,07,26,06,07,16.70
2009,07,26,06,08,16.70
2009,07,26,06,09,16.60
2009,07,26,06,10,16.60
2009,07,26,06,11,16.60
2009,07,26,06,12,16.60
2009,07,26,06,13,16.60
2009,07,26,06,14,16.60
2009,07,26,06,15,16.60
2009,07,26,06,16,16.60
2009,07,26,06,17,16.60
2009,07,26,06,18,16.60
2009,07,26,06,19,16.60
2009,07,26,06,20,16.60
2009,07,26,06,21,16.60
2009,07,26,06,22,16.60
2009,07,26,06,23,16.60
2009,07,26,06,24,16.70
2009,07,26,06,25,16.70
2009,07,26,06,26,16.70
2009,07,26,06,27,16.70
2009,07,26,06,28,16.70
2009,07,26,06,29,16.80
2009,07,26,06,30,16.80
2009,07,26,06,31,16.80
2009,07,26,06,32,16.80
2009,07,26,06,33,16.90
2009,07,26,06,34,17.00
2009,07,26,06,35,17.00
2009,07,26,06,36,17.10
2009,07,26,06,37,17.00
2009,07,26,06,38,17.00
2009,07,26,06,39,17.10
2009,07,26,06,40,17.10
2009,07,26,06,41,17.10
2009,07,26,06,42,17.10
2009,07,26,06,43,17.10
2009,07,26,06,44,17.10
2009,07,26,06,45,17.20
2009,07,26,06,46,17.20
2009,07,26,06,47,17.20
2009,07,26,06,48,17.20
2009,07,26,06,49,17.20
2009,07,26,06,50,17.20
2009,07,26,06,51,17.20
2009,07,26,06,52,17.20
2009,07,26,06,53,17.30
2009,07,26,06,54,17.30
2009,07,26,06,55,17.30
2009,07,26,06,56,17.30
2009,07,26,06,57,17.40
2009,07,26,06,58,17.40
2009,07,26,06,59,17.50
2009,07,26,07,00,17.50
2009,07,26,07,01,17.60
2009,07,26,07,02,17.60
2009,07,26,07,03,17.70
2009,07,26,07,04,17.70
2009,07,26,07,05,17.70
2009,07,26,07,06,17.80
2009,07,26,07,07,17.80
2009,07,26,07,08,17.90
2009,07,26,07,09,17.90
2009,07,26,07,10,17.90
2009,07,26,07,11,17.90
2009,07,26,07,12,18.00
2009,07,26,07,13,18.00
2009,07,26,07,14,18.10
2009,07,26,07,15,18.10
2009,07,26,07,16,18.10
2009,07,26,07,17,18.20
2009,07,26,07,18,18.30
2009,07,26,07,19,18.40
2009,07,26,07,20,18.50
2009,07,26,07,21,18.60
2009,07,26,07,22,18.70
2009,07,26,07,23,18.70
2009,07,26,07,24,18.80
2009,07,26,07,25,18.80
2009,07,26,07,26,18.80
2009,07,26,07,27,18.80
2009,07,26,07,28,18.90
2009,07,26,07,29,18.90
2009,07,26,07,30,18.90
2009,07,26,07,31,19.00
2009,07,26,07,32,19.10
2009,07,26,07,33,19.20
2009,07,26,07,34,19.20
2009,07,26,07,35,19.30
2009,07,26,07,36,19.40
2009,07,26,07,37,19.40
2009,07,26,07,38,19.50
2009,07,26,07,39,19.50
2009,07,26,07,40,19.50
2009,07,26,07,41,19.50
2009,07,26,07,42,19.60
2009,07,26,07,43,19.60
2009,07,26,07,44,19.70
2009,07,26,07,45,19.70
2009,07,26,07,46,19.80
2009,07,26,07,47,19.80
2009,07,26,07,48,19.90
2009,07,26,07,49,19.90
2009,07,26,07,50,20.00
2009,07,26,07,51,20.10
2009,07,26,07,52,20.20
2009,07,26,07,53,20.30
2009,07,26,07,54,20.40
2009,07,26,07,55,20.40
2009,07,26,07,56,20.50
2009,07,26,07,57,20.50
2009,07,26,07,58,20.60
2009,07,26,07,59,20.60
2009,07,26,08,00,20.70
2009,07,26,08,01,20.80
2009,07,26,08,02,20.80
2009,07,26,08,03,20.50
2009,07,26,08,04,20.00
2009,07,26,08,05,19.60
2009,07,26,08,06,19.10
2009,07,26,08,07,18.80
2009,07,26,08,08,18.60
2009,07,26,08,09,18.50
2009,07,26,08,10,18.50
2009,07,26,08,11,18.60
2009,07,26,08,12,18.70
2009,07,26,08,13,18.80
2009,07,26,08,14,18.90
2009,07,26,08,15,19.10
2009,07,26,08,16,19.20
2009,07,26,08,17,19.20
2009,07,26,08,18,19.30
2009,07,26,08,19,19.40
2009,07,26,08,20,19.50
2009,07,26,08,21,19.60
2009,07,26,08,22,19.70
2009,07,26,08,23,19.80
2009,07,26,08,24,19.90
2009,07,26,08,25,20.10
2009,07,26,08,26,20.20
2009,07,26,08,27,20.40
2009,07,26,08,28,20.60
2009,07,26,08,29,20.70
2009,07,26,08,30,20.90
2009,07,26,08,31,20.90
2009,07,26,08,32,21.00
2009,07,26,08,33,21.00
2009,07,26,08,34,21.00
2009,07,26,08,35,21.00
2009,07,26,08,36,21.10
2009,07,26,08,37,21.10
2009,07,26,08,38,21.20
2009,07,26,08,39,21.20
2009,07,26,08,40,21.30
2009,07,26,08,41,21.30
2009,07,26,08,42,21.50
2009,07,26,08,43,21.60
2009,07,26,08,44,21.80
2009,07,26,08,45,21.80
2009,07,26,08,46,21.80
2009,07,26,08,47,21.90
2009,07,26,08,48,21.90
2009,07,26,08,49,22.00
2009,07,26,08,50,22.10
2009,07,26,08,51,22.30
2009,07,26,08,52,22.40
2009,07,26,08,53,22.50
2009,07,26,08,54,22.60
2009,07,26,08,55,22.70
2009,07,26,08,56,22.70
2009,07,26,08,57,22.70
2009,07,26,08,58,22.70
2009,07,26,08,59,22.70
2009,07,26,09,00,22.70
2009,07,26,09,01,22.70
2009,07,26,09,02,22.80
2009,07,26,09,03,22.80
2009,07,26,09,04,22.90
2009,07,26,09,05,23.00
2009,07,26,09,06,23.10
2009,07,26,09,07,23.20
2009,07,26,09,08,23.30
2009,07,26,09,09,23.30
2009,07,26,09,10,23.30
2009,07,26,09,11,23.20
2009,07,26,09,12,23.20
2009,07,26,09,13,23.20
2009,07,26,09,14,23.20
2009,07,26,09,15,23.20
2009,07,26,09,16,23.20
2009,07,26,09,17,23.20
2009,07,26,09,18,23.20
2009,07,26,09,19,23.20
2009,07,26,09,20,23.10
2009,07,26,09,21,23.10
2009,07,26,09,22,23.00
2009,07,26,09,23,22.90
2009,07,26,09,24,22.90
2009,07,26,09,25,22.90
2009,07,26,09,26,22.90
2009,07,26,09,27,22.90
2009,07,26,09,28,22.80
2009,07,26,09,29,22.80
2009,07,26,09,30,22.90
2009,07,26,09,31,22.90
2009,07,26,09,32,23.00
2009,07,26,09,33,23.00
2009,07,26,09,34,23.00
2009,07,26,09,35,23.10
2009,07,26,09,36,23.20
2009,07,26,09,37,23.30
2009,07,26,09,38,23.30
2009,07,26,09,39,23.40
2009,07,26,09,40,23.50
2009,07,26,09,41,23.60
2009,07,26,09,42,23.60
2009,07,26,09,43,23.60
2009,07,26,09,44,23.60
2009,07,26,09,45,23.60
2009,07,26,09,46,23.70
2009,07,26,09,47,23.80
2009,07,26,09,48,23.80
2009,07,26,09,49,23.80
2009,07,26,09,50,23.80
2009,07,26,09,51,23.70
2009,07,26,09,52,23.50
2009,07,26,09,53,23.20
2009,07,26,09,54,23.10
2009,07,26,09,55,22.90
2009,07,26,09,56,22.80
2009,07,26,09,57,22.70
2009,07,26,09,58,22.70
2009,07,26,09,59,22.80
2009,07,26,10,00,22.80
2009,07,26,10,01,22.70
2009,07,26,10,02,22.60
2009,07,26,10,03,22.40
2009,07,26,10,04,22.20
2009,07,26,10,05,21.90
2009,07,26,10,06,21.80
2009,07,26,10,07,21.70
2009,07,26,10,08,21.50
2009,07,26,10,09,21.50
2009,07,26,10,10,21.40
2009,07,26,10,11,21.30
2009,07,26,10,12,21.30
2009,07,26,10,13,21.30
2009,07,26,10,14,21.30
2009,07,26,10,15,21.30
2009,07,26,10,16,21.30
2009,07,26,10,17,21.30
2009,07,26,10,18,21.40
2009,07,26,10,19,21.40
2009,07,26,10,20,21.40
2009,07,26,10,21,21.40
2009,07,26,10,22,21.40
2009,07,26,10,23,21.40
2009,07,26,10,24,21.40
2009,07,26,10,25,21.40
2009,07,26,10,26,21.30
2009,07,26,10,27,21.10
2009,07,26,10,28,21.00
2009,07,26,10,29,21.00
2009,07,26,10,30,21.10
2009,07,26,10,31,21.10
2009,07,26,10,32,21.10
2009,07,26,10,33,21.10
2009,07,26,10,34,21.20
2009,07,26,10,35,21.20
2009,07,26,10,36,21.20
2009,07,26,10,37,21.30
2009,07,26,10,38,21.30
2009,07,26,10,39,21.30
2009,07,26,10,40,21.40
2009,07,26,10,41,21.50
2009,07,26,10,42,21.60
2009,07,26,10,43,21.60
2009,07,26,10,44,21.60
2009,07,26,10,45,21.70
2009,07,26,10,46,21.70
2009,07,26,10,47,21.70
2009,07,26,10,48,21.70
2009,07,26,10,49,21.70
2009,07,26,10,50,21.80
2009,07,26,10,51,21.80
2009,07,26,10,52,21.90
2009,07,26,10,53,21.90
2009,07,26,10,54,22.00
2009,07,26,10,55,22.00
2009,07,26,10,56,22.10
2009,07,26,10,57,22.30
2009,07,26,10,58,22.40
2009,07,26,10,59,22.50
2009,07,26,11,00,22.60
2009,07,26,11,01,22.70
2009,07,26,11,02,22.70
2009,07,26,11,03,22.60
2009,07,26,11,04,22.30
2009,07,26,11,05,22.20
2009,07,26,11,06,22.10
2009,07,26,11,07,22.00
2009,07,26,11,08,21.80
2009,07,26,11,09,21.80
2009,07,26,11,10,21.80
2009,07,26,11,11,21.80
2009,07,26,11,12,21.80
2009,07,26,11,13,21.80
2009,07,26,11,14,21.90
2009,07,26,11,15,21.80
2009,07,26,11,16,21.80
2009,07,26,11,17,21.80
2009,07,26,11,18,21.80
2009,07,26,11,19,21.80
2009,07,26,11,20,22.00
2009,07,26,11,21,22.10
2009,07,26,11,22,22.10
2009,07,26,11,23,22.10
2009,07,26,11,24,22.20
2009,07,26,11,25,22.20
2009,07,26,11,26,22.10
2009,07,26,11,27,21.90
2009,07,26,11,28,21.90
2009,07,26,11,29,21.90
2009,07,26,11,30,22.00
2009,07,26,11,31,22.10
2009,07,26,11,32,22.20
2009,07,26,11,33,22.30
2009,07,26,11,34,22.30
2009,07,26,11,35,22.20
2009,07,26,11,36,22.10
2009,07,26,11,37,22.10
2009,07,26,11,38,22.10
2009,07,26,11,39,22.10
2009,07,26,11,40,22.10
2009,07,26,11,41,22.10
2009,07,26,11,42,22.10
2009,07,26,11,43,22.20
2009,07,26,11,44,22.30
2009,07,26,11,45,22.40
2009,07,26,11,46,22.40
2009,07,26,11,47,22.50
2009,07,26,11,48,22.50
2009,07,26,11,49,22.60
2009,07,26,11,50,22.70
2009,07,26,11,51,22.60
2009,07,26,11,52,22.60
2009,07,26,11,53,22.50
2009,07,26,11,54,22.40
2009,07,26,11,55,22.30
2009,07,26,11,56,22.30
2009,07,26,11,57,22.20
2009,07,26,11,58,22.10
2009,07,26,11,59,22.00
2009,07,26,12,00,22.00
2009,07,26,12,01,22.10
2009,07,26,12,02,22.30
2009,07,26,12,03,22.30
2009,07,26,12,04,22.40
2009,07,26,12,05,22.50
2009,07,26,12,06,22.50
2009,07,26,12,07,22.60
2009,07,26,12,08,22.60
2009,07,26,12,09,22.70
2009,07,26,12,10,22.60
2009,07,26,12,11,22.60
2009,07,26,12,12,22.70
2009,07,26,12,13,22.70
2009,07,26,12,14,22.70
2009,07,26,12,15,22.80
2009,07,26,12,16,22.80
2009,07,26,12,17,22.90
2009,07,26,12,18,22.90
2009,07,26,12,19,23.00
2009,07,26,12,20,23.00
2009,07,26,12,21,22.90
2009,07,26,12,22,22.90
2009,07,26,12,23,22.80
2009,07,26,12,24,22.80
2009,07,26,12,25,22.80
2009,07,26,12,26,22.80
2009,07,26,12,27,22.70
2009,07,26,12,28,22.80
2009,07,26,12,29,22.90
2009,07,26,12,30,22.80
2009,07,26,12,31,22.80
2009,07,26,12,32,22.80
2009,07,26,12,33,22.80
2009,07,26,12,34,22.80
2009,07,26,12,35,22.70
2009,07,26,12,36,22.70
2009,07,26,12,37,22.70
2009,07,26,12,38,22.80
2009,07,26,12,39,22.80
2009,07,26,12,40,22.80
2009,07,26,12,41,22.90
2009,07,26,12,42,22.90
2009,07,26,12,43,23.00
2009,07,26,12,44,23.00
2009,07,26,12,45,23.10
2009,07,26,12,46,23.10
2009,07,26,12,47,23.10
2009,07,26,12,48,23.20
2009,07,26,12,49,23.40
2009,07,26,12,50,23.40
2009,07,26,12,51,23.40
2009,07,26,12,52,23.40
2009,07,26,12,53,23.30
2009,07,26,12,54,23.20
2009,07,26,12,55,23.20
2009,07,26,12,56,23.10
2009,07,26,12,57,23.10
2009,07,26,12,58,23.10
2009,07,26,12,59,23.20
2009,07,26,13,00,23.20
2009,07,26,13,01,23.30
2009,07,26,13,02,23.40
2009,07,26,13,03,23.40
2009,07,26,13,04,23.30
2009,07,26,13,05,23.20
2009,07,26,13,06,23.30
2009,07,26,13,07,23.30
2009,07,26,13,08,23.30
2009,07,26,13,09,23.40
2009,07,26,13,10,23.40
2009,07,26,13,11,23.40
2009,07,26,13,12,23.40
2009,07,26,13,13,23.50
2009,07,26,13,14,23.50
2009,07,26,13,15,23.40
2009,07,26,13,16,23.30
2009,07,26,13,17,23.30
2009,07,26,13,18,23.30
2009,07,26,13,19,23.30
2009,07,26,13,20,23.20
2009,07,26,13,21,23.20
2009,07,26,13,22,23.30
2009,07,26,13,23,23.30
2009,07,26,13,24,23.30
2009,07,26,13,25,23.30
2009,07,26,13,26,23.40
2009,07,26,13,27,23.40
2009,07,26,13,28,23.50
2009,07,26,13,29,23.60
2009,07,26,13,30,23.70
2009,07,26,13,31,23.60
2009,07,26,13,32,23.50
2009,07,26,13,33,23.50
2009,07,26,13,34,23.60
2009,07,26,13,35,23.60
2009,07,26,13,36,23.50
2009,07,26,13,37,23.40
2009,07,26,13,38,23.20
2009,07,26,13,39,23.20
2009,07,26,13,40,23.20
2009,07,26,13,41,23.30
2009,07,26,13,42,23.30
2009,07,26,13,43,23.30
2009,07,26,13,44,23.40
2009,07,26,13,45,23.50
2009,07,26,13,46,23.60
2009,07,26,13,47,23.60
2009,07,26,13,48,23.60
2009,07,26,13,49,23.50
2009,07,26,13,50,23.40
2009,07,26,13,51,23.40
2009,07,26,13,52,23.50
2009,07,26,13,53,23.60
2009,07,26,13,54,23.70
2009,07,26,13,55,23.80
2009,07,26,13,56,23.80
2009,07,26,13,57,23.80
2009,07,26,13,58,23.80
2009,07,26,13,59,23.90
2009,07,26,14,00,23.90
2009,07,26,14,01,23.80
2009,07,26,14,02,23.80
2009,07,26,14,03,23.90
2009,07,26,14,04,24.00
2009,07,26,14,05,24.00
2009,07,26,14,06,24.00
2009,07,26,14,07,24.00
2009,07,26,14,08,24.00
2009,07,26,14,09,24.00
2009,07,26,14,10,24.10
2009,07,26,14,11,24.00
2009,07,26,14,12,24.00
2009,07,26,14,13,23.90
2009,07,26,14,14,23.90
2009,07,26,14,15,24.00
2009,07,26,14,16,23.90
2009,07,26,14,17,23.90
2009,07,26,14,18,23.90
2009,07,26,14,19,23.80
2009,07,26,14,20,23.80
2009,07,26,14,21,23.80
2009,07,26,14,22,23.80
2009,07,26,14,23,23.80
2009,07,26,14,24,23.80
2009,07,26,14,25,23.90
2009,07,26,14,26,23.90
2009,07,26,14,27,23.90
2009,07,26,14,28,24.00
2009,07,26,14,29,24.00
2009,07,26,14,30,24.00
2009,07,26,14,31,24.00
2009,07,26,14,32,24.00
2009,07,26,14,33,24.10
2009,07,26,14,34,24.20
2009,07,26,14,35,24.20
2009,07,26,14,36,24.20
2009,07,26,14,37,24.30
2009,07,26,14,38,24.40
2009,07,26,14,39,24.40
2009,07,26,14,40,24.50
2009,07,26,14,41,24.40
2009,07,26,14,42,24.40
2009,07,26,14,43,24.40
2009,07,26,14,44,24.50
2009,07,26,14,45,24.50
2009,07,26,14,46,24.40
2009,07,26,14,47,24.30
2009,07,26,14,48,24.30
2009,07,26,14,49,24.20
2009,07,26,14,50,24.20
2009,07,26,14,51,24.20
2009,07,26,14,52,24.20
2009,07,26,14,53,24.20
2009,07,26,14,54,24.20
2009,07,26,14,55,24.20
2009,07,26,14,56,24.20
2009,07,26,14,57,24.20
2009,07,26,14,58,24.20
2009,07,26,14,59,24.20
2009,07,26,15,00,24.20
2009,07,26,15,01,24.10
2009,07,26,15,02,24.10
2009,07,26,15,03,24.10
2009,07,26,15,04,24.10
2009,07,26,15,05,24.10
2009,07,26,15,06,24.10
2009,07,26,15,07,24.10
2009,07,26,15,08,24.10
2009,07,26,15,09,24.10
2009,07,26,15,10,24.20
2009,07,26,15,11,24.20
2009,07,26,15,12,24.30
2009,07,26,15,13,24.50
2009,07,26,15,14,24.60
2009,07,26,15,15,24.80
2009,07,26,15,16,25.00
2009,07,26,15,17,25.10
2009,07,26,15,18,25.10
2009,07,26,15,19,25.10
2009,07,26,15,20,25.10
2009,07,26,15,21,25.20
2009,07,26,15,22,25.20
2009,07,26,15,23,25.20
2009,07,26,15,24,25.20
2009,07,26,15,25,25.30
2009,07,26,15,26,25.30
2009,07,26,15,27,25.40
2009,07,26,15,28,25.50
2009,07,26,15,29,25.50
2009,07,26,15,30,25.60
2009,07,26,15,31,25.50
2009,07,26,15,32,25.40
2009,07,26,15,33,25.40
2009,07,26,15,34,25.30
2009,07,26,15,35,25.30
2009,07,26,15,36,25.30
2009,07,26,15,37,25.40
2009,07,26,15,38,25.40
2009,07,26,15,39,25.40
2009,07,26,15,40,25.50
2009,07,26,15,41,25.60
2009,07,26,15,42,25.70
2009,07,26,15,43,25.80
2009,07,26,15,44,25.90
2009,07,26,15,45,26.00
2009,07,26,15,46,26.00
2009,07,26,15,47,26.00
2009,07,26,15,48,26.00
2009,07,26,15,49,26.00
2009,07,26,15,50,26.00
2009,07,26,15,51,25.90
2009,07,26,15,52,25.90
2009,07,26,15,53,25.90
2009,07,26,15,54,25.90
2009,07,26,15,55,25.90
2009,07,26,15,56,26.00
2009,07,26,15,57,26.00
2009,07,26,15,58,25.90
2009,07,26,15,59,25.90
2009,07,26,16,00,25.90
2009,07,26,16,01,25.90
2009,07,26,16,02,25.90
2009,07,26,16,03,25.90
2009,07,26,16,04,25.80
2009,07,26,16,05,25.80
2009,07,26,16,06,25.90
2009,07,26,16,07,25.90
2009,07,26,16,08,25.90
2009,07,26,16,09,25.90
2009,07,26,16,10,25.90
2009,07,26,16,11,25.90
2009,07,26,16,12,25.90
2009,07,26,16,13,25.90
2009,07,26,16,14,26.00
2009,07,26,16,15,26.10
2009,07,26,16,16,26.10
2009,07,26,16,17,26.10
2009,07,26,16,18,26.10
2009,07,26,16,19,26.10
2009,07,26,16,20,26.10
2009,07,26,16,21,26.20
2009,07,26,16,22,26.20
2009,07,26,16,23,26.10
2009,07,26,16,24,26.10
2009,07,26,16,25,26.20
2009,07,26,16,26,26.20
2009,07,26,16,27,26.10
2009,07,26,16,28,26.10
2009,07,26,16,29,26.10
2009,07,26,16,30,26.10
2009,07,26,16,31,26.00
2009,07,26,16,32,25.90
2009,07,26,16,33,25.90
2009,07,26,16,34,25.90
2009,07,26,16,35,26.00
2009,07,26,16,36,26.10
2009,07,26,16,37,26.20
2009,07,26,16,38,26.20
2009,07,26,16,39,26.20
2009,07,26,16,40,26.20
2009,07,26,16,41,26.20
2009,07,26,16,42,26.20
2009,07,26,16,43,26.20
2009,07,26,16,44,26.30
2009,07,26,16,45,26.30
2009,07,26,16,46,26.30
2009,07,26,16,47,26.30
2009,07,26,16,48,26.30
2009,07,26,16,49,26.30
2009,07,26,16,50,26.20
2009,07,26,16,51,26.20
2009,07,26,16,52,26.10
2009,07,26,16,53,26.10
2009,07,26,16,54,26.10
2009,07,26,16,55,26.10
2009,07,26,16,56,26.00
2009,07,26,16,57,25.90
2009,07,26,16,58,25.90
2009,07,26,16,59,25.90
2009,07,26,17,00,25.90
2009,07,26,17,01,26.00
2009,07,26,17,02,26.00
2009,07,26,17,03,26.10
2009,07,26,17,04,26.10
2009,07,26,17,05,26.10
2009,07,26,17,06,26.10
2009,07,26,17,07,26.00
2009,07,26,17,08,26.00
2009,07,26,17,09,25.90
2009,07,26,17,10,25.90
2009,07,26,17,11,25.90
2009,07,26,17,12,25.90
2009,07,26,17,13,25.80
2009,07,26,17,14,25.80
2009,07,26,17,15,25.90
2009,07,26,17,16,25.90
2009,07,26,17,17,25.90
2009,07,26,17,18,26.00
2009,07,26,17,19,26.10
2009,07,26,17,20,26.20
2009,07,26,17,21,26.30
2009,07,26,17,22,26.30
2009,07,26,17,23,26.40
2009,07,26,17,24,26.50
2009,07,26,17,25,26.60
2009,07,26,17,26,26.60
2009,07,26,17,27,26.70
2009,07,26,17,28,26.80
2009,07,26,17,29,26.80
2009,07,26,17,30,26.90
2009,07,26,17,31,26.90
2009,07,26,17,32,26.90
2009,07,26,17,33,27.00
2009,07,26,17,34,27.00
2009,07,26,17,35,26.90
2009,07,26,17,36,26.90
2009,07,26,17,37,26.80
2009,07,26,17,38,26.80
2009,07,26,17,39,26.70
2009,07,26,17,40,26.60
2009,07,26,17,41,26.60
2009,07,26,17,42,26.50
2009,07,26,17,43,26.40
2009,07,26,17,44,26.30
2009,07,26,17,45,26.20
2009,07,26,17,46,26.00
2009,07,26,17,47,26.00
2009,07,26,17,48,25.90
2009,07,26,17,49,25.90
2009,07,26,17,50,25.90
2009,07,26,17,51,25.90